{"data":{"norad_id":66592,"intl_designator":"2025-270E","name":"STARLINK-36066","alt_names":[],"object_type":"PAYLOAD","status":"ACTIVE","operator":null,"country":"US","launch_date":"2025-11-22","launch_site_code":"AFETR","launch_vehicle":null,"mission":null,"orbit_class":"UNKNOWN","rcs_meters":null,"size_class":null,"mass_kg":null,"dimensions":null,"purposes":["comms"],"wikipedia_slug":null,"has_3d_model":false,"image_url":null,"decayed_at":null,"tle_current":{"epoch":"2026-05-24T20:49:18.588864Z","epoch_age_seconds":97053,"freshness":"FRESH","line1":"1 66592U 25270E   26144.86757626  .00018577  00000+0  68237-3 0  9994","line2":"2 66592  42.9982 346.2037 0001252 271.6813  88.3896 15.27604441 29251","mean_motion":15.27604441,"eccentricity":0.0001252,"inclination_deg":42.9982,"raan_deg":346.2037,"arg_perigee_deg":271.6813,"mean_anomaly_deg":88.3896,"bstar":0.00068237,"rev_number":2925,"period_min":94.265240487082,"perigee_km":482.11690053226,"apogee_km":483.83492320539,"semimajor_km":6861.1129118688,"source":"CELESTRAK","updated_at":"2026-05-25T13:38:21.287481Z"}}}